[[{"header":{"parameterUnit":"m.s-1","parameterCategory":1,"la1":30.2991,"la2":30.254,"lo1":-89.0895,"lo2":-89.0444,"dy":0.0017,"dx":0.0017,"nx":28,"ny":28,"refTime":"2024-05-21T09:00:00:Z","depth":0,"parameterNumber":2,"parameterNumberName":"U-component_of_WINDS"},"data":[0,0,0,0,0,0,0,0,0,0,0,0,0,0,0,0,0,0,0,0,0,0,0,0,0,0,0,0,0,0,0,0,0,0,0,0,0,0,0,0,0,0,0,0,0,0,0,0,0,0,0,0,0,0,0,0,0,0,-1.5449,-1.545,0,-1.5576,-1.5577,-1.5579,-1.5644,-1.5644,-1.5644,-1.5644,-1.5773,-1.5776,-1.578,0,0,0,0,0,0,0,0,0,0,0,0,0,-1.5262,-1.5265,-1.5449,-1.545,-1.5452,-1.5576,-1.5577,-1.5579,-1.5644,-1.5644,-1.5644,-1.5644,-1.5772,-1.5776,-1.578,0,0,0,0,0,0,0,0,0,0,0,0,0,-1.5361,-1.5266,-1.5448,-1.5499,-1.5505,-1.5575,-1.5577,-1.558,-1.5644,-1.5644,-1.5644,-1.5644,-1.577,-1.5775,-1.578,-1.581,0,0,-1.5796,-1.5798,0,0,0,0,0,0,0,0,-1.5355,-1.5368,-1.549,-1.5496,-1.5502,-1.5594,-1.5559,-1.5657,-1.5644,-1.5591,-1.5644,-1.5644,-1.5713,-1.5723,-1.5747,-1.5816,-1.5821,-1.5796,-1.5799,-1.5802,-1.5803,0,0,0,0,0,0,0,-1.5348,-1.5363,-1.5499,-1.5492,-1.5499,-1.5515,-1.553,-1.5578,-1.565,-1.5596,-1.5601,-1.5615,-1.5717,-1.5742,-1.575,-1.5823,-1.5796,-1.5801,-1.5804,-1.5806,-1.5924,-1.5924,0,0,0,0,0,0,-1.5333,-1.5357,-1.5495,-1.5503,-1.5428,-1.5519,-1.5535,-1.5564,-1.565,-1.5663,-1.5615,-1.5617,-1.5733,-1.5744,-1.5755,-1.5796,-1.5802,-1.5806,-1.5809,-1.5924,-1.5924,-1.5924,0,0,0,0,0,0,-1.5329,-1.5345,-1.549,-1.5431,-1.5451,-1.5522,-1.5555,-1.5567,-1.5592,-1.5664,-1.5677,-1.5627,-1.5733,-1.5748,-1.5796,-1.5801,-1.5809,-1.5813,-1.5924,-1.5924,-1.5924,-1.5877,0,0,0,0,0,0,-1.5323,-1.5343,-1.5355,-1.5431,-1.5454,-1.5529,-1.5555,-1.5569,-1.5601,-1.5606,-1.5679,-1.5691,-1.5735,-1.5788,-1.5801,-1.5808,-1.5817,-1.5924,-1.5924,-1.5924,-1.5878,-1.5875,-1.5873,0,0,0,0,0,-1.5317,-1.5336,-1.5355,-1.5372,-1.547,-1.5529,-1.5542,-1.5592,-1.5601,-1.5613,-1.566,-1.5689,-1.5798,-1.5792,-1.5808,-1.5816,-1.5924,-1.5924,-1.5924,-1.588,-1.5876,-1.5873,0,0,0,0,0,0,-1.5259,-1.5347,-1.5369,-1.5414,-1.5463,-1.554,-1.5557,-1.5586,-1.5634,-1.5636,-1.5696,-1.5712,-1.5754,-1.579,-1.5782,-1.585,-1.5864,-1.5867,-1.5825,-1.5822,-1.5819,-1.581,-1.5821,0,0,0,0,0,-1.5251,-1.5292,-1.5367,-1.5399,-1.5423,-1.5485,-1.5513,-1.5547,-1.5601,-1.5622,-1.5672,-1.5722,-1.5768,-1.5797,-1.5843,-1.5884,-1.5901,-1.5897,-1.5895,-1.5892,-1.5894,-1.5919,-1.5919,-1.5925,-1.5925,-1.5925,0,0,-1.5236,-1.5289,-1.5311,-1.5389,-1.5431,-1.5472,-1.5503,-1.5544,-1.5575,-1.5628,-1.5677,-1.5715,-1.5776,-1.582,-1.5842,-1.5851,-1.5896,-1.5892,-1.589,-1.5894,-1.592,-1.5919,-1.5918,-1.5925,-1.5925,-1.5925,0,0,-1.5229,-1.5273,-1.5305,-1.5347,-1.5411,-1.5453,-1.5461,-1.5533,-1.5561,-1.5611,-1.5652,-1.5689,-1.5767,-1.5809,-1.584,-1.585,-1.5878,-1.5863,-1.5849,-1.5873,-1.5872,-1.5872,-1.5876,-1.5877,-1.5865,-1.5865,-1.5865,0,-1.5202,-1.5265,-1.5318,-1.5358,-1.5391,-1.5441,-1.5475,-1.5513,-1.5588,-1.561,-1.5619,-1.5718,-1.5762,-1.5818,-1.5821,-1.5844,-1.5855,-1.5855,-1.5868,-1.5868,-1.5869,-1.5874,-1.5875,-1.5862,-1.5863,-1.5863,-1.5863,0,-1.5229,-1.5272,-1.529,-1.5363,-1.5398,-1.5434,-1.5493,-1.5522,-1.5553,-1.5594,-1.5645,-1.57,-1.5758,-1.5774,-1.5804,-1.5834,-1.5838,-1.5857,-1.5872,-1.5865,-1.5871,-1.5873,-1.5859,-1.586,-1.5861,-1.5861,0,0,-1.5189,-1.5291,-1.5297,-1.533,-1.5405,-1.544,-1.5478,-1.5536,-1.556,-1.5611,-1.5645,-1.571,-1.5728,-1.5763,-1.5799,-1.582,-1.5825,-1.5837,-1.5839,-1.5833,-1.5862,-1.5848,-1.5849,-1.5845,-1.5845,-1.5846,-1.5858,0,-1.5193,-1.5265,-1.5314,-1.5367,-1.5408,-1.5457,-1.549,-1.554,-1.5579,-1.5619,-1.5663,-1.5708,-1.5728,-1.575,-1.5773,-1.582,-1.5832,-1.5819,-1.5877,-1.5879,-1.5861,-1.5852,-1.5837,-1.5845,-1.586,-1.586,-1.5861,0,-1.5207,-1.5257,-1.5314,-1.5385,-1.5404,-1.5433,-1.5491,-1.5529,-1.5586,-1.5613,-1.5653,-1.569,-1.5733,-1.5745,-1.5805,-1.5796,-1.5822,-1.5849,-1.585,-1.5858,-1.5869,-1.586,-1.5849,-1.5851,-1.5864,-1.5864,-1.5864,0,-1.5173,-1.5254,-1.5299,-1.5326,-1.541,-1.543,-1.5465,-1.5523,-1.5555,-1.5605,-1.5627,-1.5681,-1.571,-1.5752,-1.5802,-1.5806,-1.5858,-1.5873,-1.5882,-1.5881,-1.5891,-1.589,-1.5885,-1.5907,-1.5907,-1.5907,-1.5907,0,-1.5173,-1.5206,-1.5285,-1.5312,-1.5351,-1.5407,-1.5444,-1.5484,-1.5535,-1.5571,-1.5616,-1.5649,-1.5714,-1.5755,-1.5795,-1.5839,-1.5852,-1.5876,-1.5886,-1.5872,-1.5869,-1.5891,-1.5891,-1.5908,-1.5907,-1.5907,-1.5907,0,-1.5141,-1.5195,-1.5247,-1.5323,-1.5342,-1.5368,-1.5432,-1.5461,-1.5503,-1.5548,-1.5562,-1.5628,-1.5679,-1.5734,-1.5803,-1.583,-1.5872,-1.5886,-1.5853,-1.5859,-1.5865,-1.5864,-1.5874,-1.5879,-1.5896,-1.5896,-1.5896,0,-1.5137,-1.5164,-1.5242,-1.527,-1.5305,-1.5349,-1.5382,-1.5439,-1.5471,-1.5539,-1.556,-1.5614,-1.5661,-1.574,-1.5794,-1.5847,-1.5863,-1.5863,-1.5871,-1.5857,-1.5864,-1.5862,-1.5865,-1.586,-1.586,-1.586,-1.5859,0,-1.5125,-1.5151,-1.5197,-1.5253,-1.5291,-1.5337,-1.5386,-1.5406,-1.5472,-1.5507,-1.5559,-1.5596,-1.5667,-1.572,-1.578,-1.5817,-1.585,-1.5856,-1.5861,-1.5847,-1.5827,-1.5839,-1.5846,-1.5856,-1.5856,-1.5856,-1.5857,-1.5857,-1.5108,-1.5134,-1.5194,-1.5244,-1.5286,-1.5331,-1.5362,-1.5408,-1.5453,-1.5515,-1.5546,-1.5599,-1.5657,-1.5741,-1.5777,-1.5819,-1.5829,-1.5836,-1.5838,-1.5839,-1.5836,-1.582,-1.583,-1.5831,-1.5831,-1.5831,-1.5831,0,-1.5099,-1.514,-1.5185,-1.5252,-1.5291,-1.5318,-1.5373,-1.5405,-1.5451,-1.5502,-1.5547,-1.5608,-1.5661,-1.5719,-1.5775,-1.5798,-1.5814,-1.5811,-1.581,-1.5818,-1.5823,-1.5814,-1.5797,-1.5797,-1.5797,-1.5797,-1.5797,-1.5797,-1.5098,-1.5145,-1.5178,-1.5246,-1.5287,-1.5339,-1.5368,-1.5409,-1.5451,-1.5517,-1.5561,-1.5599,-1.5654,-1.5714,-1.5764,-1.578,-1.5799,-1.5791,-1.5811,-1.5815,-1.5818,-1.582,-1.5812,-1.5794,-1.5794,-1.5803,-1.5803,-1.5803]},{"header":{"parameterUnit":"m.s-1","parameterCategory":1,"la1":30.2991,"la2":30.254,"lo1":-89.0895,"lo2":-89.0444,"dy":0.0017,"dx":0.0017,"nx":28,"ny":28,"refTime":"2024-05-21T09:00:00:Z","depth":0,"parameterNumber":3,"parameterNumberName":"V-component_of_WINDS"},"data":[0,0,0,0,0,0,0,0,0,0,0,0,0,0,0,0,0,0,0,0,0,0,0,0,0,0,0,0,0,0,0,0,0,0,0,0,0,0,0,0,0,0,0,0,0,0,0,0,0,0,0,0,0,0,0,0,0,0,3.5212,3.5213,0,3.5236,3.5237,3.5237,3.5179,3.5177,3.5175,3.5173,3.5197,3.5199,3.5201,0,0,0,0,0,0,0,0,0,0,0,0,0,3.5114,3.5116,3.5212,3.5213,3.5213,3.5236,3.5237,3.5237,3.5179,3.5177,3.5175,3.5173,3.5196,3.5199,3.5202,0,0,0,0,0,0,0,0,0,0,0,0,0,3.515,3.5117,3.5212,3.5187,3.5185,3.5236,3.5237,3.5237,3.518,3.5177,3.5174,3.5171,3.5195,3.5199,3.5202,3.5279,0,0,3.5213,3.5214,0,0,0,0,0,0,0,0,3.5148,3.5153,3.519,3.5189,3.5187,3.5202,3.5211,3.5251,3.518,3.5182,3.5173,3.517,3.5201,3.5203,3.5214,3.528,3.5281,3.5213,3.5215,3.5217,3.5218,0,0,0,0,0,0,0,3.5145,3.5152,3.5222,3.5191,3.5189,3.5174,3.5176,3.5218,3.5206,3.5181,3.5177,3.5181,3.5199,3.5211,3.5214,3.5281,3.5213,3.5216,3.5218,3.522,3.5409,3.5411,0,0,0,0,0,0,3.5146,3.515,3.5221,3.5223,3.516,3.5178,3.518,3.52,3.5206,3.5204,3.5183,3.5178,3.5206,3.521,3.5215,3.5303,3.5217,3.522,3.5222,3.5406,3.5409,3.5412,0,0,0,0,0,0,3.5144,3.5153,3.522,3.5185,3.5193,3.5182,3.5205,3.5202,3.5213,3.5207,3.5204,3.5197,3.5204,3.521,3.5263,3.5303,3.5221,3.5225,3.5402,3.5407,3.5411,3.5481,0,0,0,0,0,0,3.5142,3.5153,3.5183,3.5186,3.5195,3.5269,3.5208,3.5204,3.522,3.5213,3.522,3.5218,3.5202,3.5258,3.5266,3.5306,3.5227,3.5398,3.5404,3.5409,3.5475,3.5487,3.5498,0,0,0,0,0,3.5139,3.5202,3.5184,3.5193,3.5232,3.5271,3.5276,3.5257,3.5223,3.5252,3.5248,3.5218,3.5298,3.5264,3.5273,3.5314,3.5396,3.5403,3.5409,3.547,3.5485,3.5498,0,0,0,0,0,0,3.5203,3.5202,3.5182,3.5249,3.5261,3.5261,3.5297,3.5273,3.5295,3.5288,3.5263,3.5265,3.5322,3.5324,3.5286,3.5388,3.5341,3.535,3.5384,3.5398,3.541,3.5407,3.523,0,0,0,0,0,3.5225,3.5258,3.5255,3.5314,3.532,3.5308,3.5325,3.5309,3.532,3.5324,3.5324,3.5335,3.5362,3.5381,3.5406,3.5476,3.5475,3.5509,3.552,3.5529,3.5537,3.5571,3.5586,3.5434,3.5434,3.5434,0,0,3.5271,3.5274,3.5296,3.5326,3.5334,3.5367,3.5313,3.5351,3.5374,3.533,3.5379,3.5379,3.539,3.5451,3.5478,3.5455,3.5579,3.5538,3.5545,3.5547,3.558,3.5594,3.5607,3.5438,3.5438,3.5437,0,0,3.537,3.5377,3.5425,3.5434,3.5445,3.5436,3.5448,3.5452,3.545,3.55,3.5466,3.5494,3.5542,3.5551,3.5561,3.5663,3.5635,3.5672,3.573,3.5765,3.5776,3.5787,3.5821,3.5834,3.5679,3.568,3.568,0,3.5425,3.5474,3.5453,3.5493,3.5507,3.5468,3.5516,3.5525,3.5544,3.5553,3.5527,3.5585,3.559,3.5651,3.5676,3.5687,3.5698,3.567,3.5777,3.5787,3.5796,3.5828,3.5841,3.5684,3.5683,3.5683,3.5682,0,3.554,3.5575,3.5613,3.5631,3.5649,3.5693,3.5678,3.5698,3.5681,3.5675,3.5724,3.5729,3.5753,3.5767,3.5751,3.5826,3.581,3.5781,3.5733,3.5815,3.5845,3.5857,3.569,3.5688,3.5687,3.5686,0,0,3.5681,3.5686,3.57,3.5707,3.5717,3.5742,3.5784,3.5808,3.5825,3.5839,3.5872,3.5913,3.5885,3.5897,3.5882,3.5912,3.5989,3.5879,3.5878,3.5897,3.607,3.609,3.6105,3.5972,3.5974,3.5976,3.6068,0,3.5777,3.5848,3.583,3.59,3.593,3.5894,3.5929,3.5938,3.5934,3.5958,3.5953,3.5981,3.5944,3.595,3.5979,3.5974,3.6023,3.5968,3.6001,3.6002,3.5997,3.6121,3.6143,3.623,3.608,3.6082,3.6083,0,3.5899,3.5917,3.599,3.5992,3.6005,3.6037,3.6056,3.6081,3.609,3.6084,3.6097,3.6075,3.6114,3.6068,3.6121,3.6083,3.6096,3.6095,3.6098,3.6099,3.6046,3.6123,3.6257,3.627,3.6102,3.61,3.6099,0,3.5991,3.6034,3.6083,3.609,3.6095,3.6118,3.6121,3.6127,3.6142,3.6159,3.6168,3.6189,3.62,3.6217,3.6201,3.6169,3.6256,3.6208,3.6251,3.6251,3.6269,3.6268,3.6405,3.6281,3.6281,3.6281,3.6281,0,3.6099,3.6145,3.6124,3.6154,3.6203,3.6181,3.6231,3.623,3.6235,3.6263,3.6233,3.626,3.6238,3.6263,3.625,3.6295,3.6301,3.6296,3.6292,3.6298,3.6298,3.6304,3.6297,3.6284,3.6284,3.6283,3.6282,0,3.621,3.6198,3.6248,3.6248,3.6249,3.6285,3.6285,3.6311,3.6304,3.634,3.6347,3.6336,3.6363,3.6349,3.6378,3.6369,3.6426,3.6415,3.6423,3.6419,3.6462,3.6457,3.6606,3.6624,3.6491,3.6492,3.6493,0,3.6279,3.6313,3.6316,3.6333,3.6337,3.6365,3.6379,3.6359,3.6376,3.6387,3.6413,3.6437,3.6456,3.6501,3.6495,3.6516,3.6504,3.6555,3.6507,3.6511,3.6502,3.6499,3.6501,3.6564,3.6565,3.6566,3.6568,0,3.6402,3.6394,3.6416,3.6436,3.6454,3.6469,3.6481,3.6496,3.6476,3.6496,3.6523,3.6537,3.6566,3.659,3.6608,3.661,3.6585,3.6583,3.6593,3.6598,3.6601,3.6598,3.6447,3.6579,3.6578,3.6577,3.6576,3.6576,3.6492,3.652,3.6526,3.6551,3.6558,3.6569,3.6594,3.659,3.6612,3.6633,3.662,3.6652,3.6659,3.668,3.6686,3.6709,3.6689,3.6705,3.6708,3.6712,3.6717,3.6599,3.6713,3.6713,3.6712,3.6712,3.6712,0,3.6612,3.6613,3.6637,3.6654,3.6673,3.6649,3.666,3.6678,3.6706,3.6714,3.6733,3.6763,3.6787,3.6782,3.6803,3.6823,3.6812,3.6829,3.6826,3.6826,3.6735,3.6723,3.6837,3.6837,3.6837,3.6837,3.6837,3.6837,3.6676,3.672,3.6713,3.676,3.6761,3.6792,3.68,3.681,3.6817,3.6852,3.6871,3.6868,3.687,3.6891,3.6911,3.6909,3.6917,3.6938,3.6931,3.6846,3.6833,3.6821,3.6809,3.694,3.694,3.702,3.7021,3.7021]}]]